STARLINK-1642, 46154

Orbit data source: Space-Track

STARLINK-1642, 46154 is a payload satellite owned by SpaceX/Seattle (US) in LEO that was launched on Tue, 18 Aug 2020 UTC via an FALCON 9 launch vehicle from the Air Force Eastern Test Range (AFETR). Payloads include a variety of satellites, spacecraft, and rockets equipped with specific instruments for various scientific and technological missions. These include communications satellites like Starlink; space stations such as the ISS; scientific satellites like the Hubble; Earth observation satellites from companies like Planet Labs, Umbra, and HawkEye 360; GPS; miniature CubeSats for education and research; and military/defense satellites.

Loading next visibility...
STARLINK-1642 details
Identifier
46154, 2020-057AP
Orbit
LEO
Last TLE update9 hours ago
Origin
Flag of USSpaceX/Seattle (US)
ManufacturerSpaceX/Seattle
MissionOperational Commercial Communications
Bus & MotorSTARLINK, Unknown motor
Mass260 kg wet, ~248 kg dry
Launch date (UTC)
2020-08-18 (4 years ago)
Launch vehicle
FALCON 9
Launch site
Air Force Eastern Test Range (AFETR)
Object type
Payload
Rocket body
Debris
Shape & HBRBox + 1 Pan, 8.86 m
Radar Cross Section13.562 m², Large (>1 m²)

Expand to show TLE details & history

TLE from 9 hours ago
0 STARLINK-1642
1 46154U 20057AP  24348.03364299  .00002344  00000-0  17624-3 0  9997
2 46154  53.0528 174.1779 0001369  91.8488 268.2658 15.06388356238788
Epoch: 2024-12-13T00:48Z
Definitive object data (Epoch: 2024-12-13T00:48:26.754Z)
Latitude0.00001°
Longitude79.861°
Altitude548.155 km
Speed7.589 km/s
True Right ascension11h 36m 42s
True Declination0° 00' 00"
Sunlit
Object was in daylight at TLE epoch
Visualization TLE readout
Latitude20.92654°
Longitude-118.3758°
Altitude547.307 km
Speed7.592 km/s
Apparent Right ascension21h 20m 43s
Apparent Declination-8° 29' 12"
Sunlit
Object is in daylight
Visualization observer readout
Local Sidereal Time07:56:37
Azimuth323.478° NNW
Elevation-53.396°
Doppler factor1
Orbital elements
Apogee altitude548.466 km
Perigee altitude546.57 km
Semi-major axis6,925.655 km
Eccentricity0.0001369
Inclination53.0528°
RAAN174.1779°
Arg. of periapsis91.8488°
True anomaly268.25012°
Mean anomaly268.2658°
Eccentric anomaly268.25796°
Mean motion3.76575 °/min
BSTAR0.00017624
Orbital period95.6 mins
Loading maneuver chart data...
Loading historical data...
Loading historical data...
Loading historical data...
Loading historical data...
Loading historical data...
Loading historical data...
Loading historical data...

STARLINK-1642 Visibility forecast

Observer location: undefined°, undefined

Span
Click to sort rows by Start time (UTC) header in descending order
Start Az.
Max El. time (UTC)
Max El. Az.
Max El.
End time (UTC)
End Az.
7 mins2024-12-13 15:18:51.155Z222.809° SW2024-12-13 15:21:51.155Z180.073° SSW43.709°2024-12-13 15:25:51.155Z53.114° ENE
5 mins2024-12-13 16:59:51.155Z295.429° NW2024-12-13 17:01:51.155Z333.206° NNW21.238°2024-12-13 17:04:51.155Z26.131° NE
4 mins2024-12-13 20:21:51.155Z348.008° N2024-12-13 20:23:51.155Z25.145° NE18.267°2024-12-13 20:25:51.155Z58.856° ENE
6 mins2024-12-13 22:00:51.155Z314.618° NW2024-12-13 22:03:51.155Z69.99° E43.781°2024-12-13 22:06:51.155Z123.642° SE
|